Home   Weather   Paradise   Past weeks

Flag for USA Past Weather in Paradise, Nevada, USA — Yesterday and Last 2 Weeks

Now
79 °F

Passing clouds.


Feels Like: 82 °F
Forecast: 78 / 91 °F
Wind: 18 mph from Northeast

Location: McCarran International Airport

Current Time: Jul 25, 2017 at 4:00:19 am

Latest Report: Jul 25, 2017 at 3:28 am


Visibility: 10 mi

Pressure: 29.92 "Hg (27.80 "Hg at 643m altitude)

Humidity: 77%

Dew Point: 71 °F

Location of ParadiseLocation

Past Weather in Paradise — Graph

°F

Paradise Temperature Yesterday

Maximum temperature yesterday: 97 °F (at 11:56 am)
Minimum temperature yesterday: 85 °F (at 11:56 pm)
Average temperature yesterday: 91 °F

High & Low Weather Summary for the Past Weeks

 TemperatureHumidityPressure
High112 °F (Jul 15, 2:56 pm)97% (Jul 19, 8:56 am)30.04 "Hg (Jul 19, 8:56 am)
Low76 °F (Jul 19, 7:56 am)8% (Jul 15, 5:56 pm)29.62 "Hg (Jul 23, 5:56 pm)
Average96 °F27%29.79 "Hg
* Reported Jul 10 2:56 am — Jul 25 2:56 am, Paradise. Weather by CustomWeather, © 2017

Note: Actual official high and low records may vary slightly from our data, if they occured in-between our weather recording intervals... More about our weather records

Advertising

Paradise Weather History for the Previous 24 Hours

Scroll right to see more
 ConditionsComfort  
Time TempWeatherWind HumidityBarometerVisibility
2:56 am
Tue, Jul 25
85 °FMostly cloudy.7 mph55%29.83 "Hg10 mi
1:56 am85 °FMostly cloudy.6 mph53%29.81 "Hg10 mi
12:56 am85 °FMostly cloudy.7 mph51%29.81 "Hg10 mi
11:56 pm
Mon, Jul 24
85 °FMostly cloudy.8 mph51%29.81 "Hg10 mi
10:56 pm86 °FPartly cloudy.9 mph48%29.80 "Hg10 mi
9:56 pm87 °FPassing clouds.14 mph46%29.78 "Hg10 mi
8:56 pm90 °FPartly cloudy.8 mph38%29.76 "Hg10 mi
7:56 pm92 °FPartly cloudy.10 mph33%29.75 "Hg10 mi
6:56 pm94 °FBroken clouds.12 mph32%29.73 "Hg10 mi
5:56 pm95 °FBroken clouds.5 mph32%29.72 "Hg10 mi
4:56 pm94 °FBroken clouds.7 mph31%29.74 "Hg10 mi
3:56 pm94 °FBroken clouds.7 mph32%29.74 "Hg10 mi
2:56 pm91 °FBroken clouds.14 mph39%29.77 "Hg10 mi
2:28 pm92 °FBroken clouds.20 mph40%29.86 "Hg10 mi
1:56 pm96 °FBroken clouds.12 mph30%29.76 "Hg10 mi
12:56 pm97 °FBroken clouds.8 mph28%29.77 "Hg10 mi
11:56 am97 °FBroken clouds.7 mph32%29.79 "Hg10 mi
10:56 am95 °FBroken clouds.6 mph34%29.80 "Hg10 mi
9:56 am92 °FBroken clouds.6 mph37%29.81 "Hg10 mi
8:56 am90 °FPartly sunny.6 mph39%29.82 "Hg10 mi
7:56 am88 °FPartly sunny.5 mph42%29.82 "Hg10 mi
6:56 am87 °FPartly sunny.8 mph43%29.80 "Hg10 mi
5:56 am87 °FPartly sunny.6 mph42%29.79 "Hg10 mi
4:56 am88 °FPartly cloudy.8 mph39%29.78 "Hg10 mi
Weather by CustomWeather, © 2017

See weather overviewHow to use our weather pages